Regional Weather Roundup
Issued by NWS

Home | Current Version | Previous Version | Text Only | Print | Product List | Glossary On
Versions: 1 2 3 4 5 6 7 8 9 10 11 12 13 14 15 16 17 18 19 20 21 22 23 24 25 26 27 28 29 30 31 32 33 34 35 36 37 38 39 40 41 42 43 44 45 46 47 48 49 50
000
ASUS43 KDTX 022201
RWRMI
MICHIGAN HOURLY REGIONAL WEATHER ROUNDUP
NATIONAL WEATHER SERVICE DETROIT/PONTIAC MI
500 PM EST MON MAR 02 2015

NOTE: "FAIR" INDICATES FEW OR NO CLOUDS BELOW 12,000 FEET WITH NO
SIGNIFICANT WEATHER AND/OR OBSTRUCTION TO VISIBILITY.

MIZ047>049-052>055-059>063-066>070-074>076-081>083-022300-
SOUTHEAST LOWER MICHIGAN

CITY           SKY/WX    TMP DP  RH WIND       PRES   REMARKS
ADRIAN         SUNNY     29  13  51 NW8       30.43F WCI  21
ALMA           SUNNY     29  11  46 NW8       30.40F WCI  21
ANN ARBOR      SUNNY     30  12  47 NW10      30.41F WCI  21
BAD AXE        SUNNY     26  11  53 W8        30.40S WCI  18
CARO           SUNNY     28  12  50 SW7       30.40S WCI  21
DETROIT CITY   SUNNY     33   9  36 W8        30.42S WCI  26
DETROIT        PTSUNNY   32  11  41 W10       30.43S WCI  24
FLINT          SUNNY     29  11  47 W12       30.42S WCI  19
GROSSE ILE     SUNNY     30  16  55 SW8       30.41F WCI  23
HILLSDALE      SUNNY     28  13  53 W8        30.39F WCI  19
HOWELL         SUNNY     28  12  50 W8        30.40S WCI  20

CITY           SKY/WX    TMP DP  RH WIND       PRES   REMARKS
JACKSON        SUNNY     29  14  53 W7        30.40S WCI  22
LAMBERTVILLE   SUNNY     30  16  55 W6        30.44F WCI  24
LANSING        SUNNY     28  13  53 W10       30.41F WCI  19
LAPEER         FAIR      28  10  47 W7G16     30.41S WCI  20
MASON          SUNNY     30  12  48 W7        30.41S WCI  23
MONROE         SUNNY     28  16  59 SW12      30.41F WCI  18
MT. CLEMENS    MOSUNNY   30  10  43 W10       30.40S WCI  21
PONTIAC        MOSUNNY   29  10  45 W10       30.39S WCI  20
PORT HOPE        N/A     26   7  44 W8G18     30.37F WCI  18
PORT HURON     SUNNY     28  10  47 W6        30.42S WCI  22
TRI CITIES     SUNNY     29  12  49 SW12      30.41S WCI  19
TROY           SUNNY     33   7  34 W7        30.43S WCI  26
SAGINAW HB     SUNNY     30  14  51 SW10      30.41F WCI  21
$$
MIZ043>046-050>051-056>058-064>065-071>073-077>080-022300-
SOUTHWEST LOWER MICHIGAN

CITY           SKY/WX    TMP DP  RH WIND       PRES   REMARKS
BATTLE CREEK   SUNNY     30  13  49 W9        30.41F WCI  22
BENTON HARBOR  SUNNY     24  16  71 W7        30.45F WCI  16
BIG RAPIDS     SUNNY     29   9  41 W6        30.37F WCI  23
COLDWATER      SUNNY     28  13  52 W6        30.41F WCI  22
FREMONT        FAIR      27   8  44 W8        30.40F WCI  19
HOLLAND        SUNNY     27  14  58 W5        30.44F WCI  22
GRAND RAPIDS   MOSUNNY   27  12  53 W12       30.42F WCI  17
IONIA          FAIR      29  15  56 SW14      30.40S WCI  18
KALAMAZOO      SUNNY     29  13  51 W9        30.42F WCI  20
LUDINGTON      MOSUNNY   23  12  61 SW7       30.43F WCI  15
MARSHALL       MOSUNNY   29  14  53 SW7       30.40F WCI  22
MOUNT PLEASANT SUNNY     31   8  37 W3        30.38F
MUSKEGON       FAIR      25  12  58 W5        30.43F WCI  19
SOUTH HAVEN    SUNNY     28  15  57 NW5       30.44S WCI  23
$$
MIZ016>042-022300-
NORTHERN LOWER MICHIGAN

CITY           SKY/WX    TMP DP  RH WIND       PRES   REMARKS
ALPENA         SUNNY     28   3  34 NW12      30.36S WCI  18
BEAVER ISLAND  SUNNY     22   8  55 SW10G16   30.38F WCI  11
BELLAIRE       SUNNY     24   5  44 W6        30.41F WCI  17
CADILLAC       SUNNY     26   6  42 NW7       30.33F WCI  18
CHARLEVOIX     SUNNY     21   7  54 CALM      30.43F
FRANKFORT      SUNNY     23  12  62 W5        30.42S WCI  17
GAYLORD        SUNNY     20  -1  40 W8G17     30.34S WCI  10
GRAYLING       SUNNY     26   0  32 NW9       30.35F WCI  16
HARBOR SPRINGS SUNNY     21   7  53 W7        30.39F WCI  13
HOUGHTON LAKE  SUNNY     26   3  37 W7        30.35F WCI  18
MANISTEE       SUNNY     23   9  54 W9        30.42F WCI  13
OSCODA         SUNNY     30   5  35 W5        30.37S WCI  25
PELLSTON       SUNNY     22   6  50 SW6       30.39S WCI  14
ROGERS CITY    SUNNY     26   7  45 W8        30.38S WCI  17
TRAVERSE CITY  MOSUNNY   25   5  42 W7        30.39F WCI  17
$$
MIZ007>008-015-022300-
EASTERN UPPER MICHIGAN

CITY           SKY/WX    TMP DP  RH WIND       PRES   REMARKS
KINROSS        SUNNY     19  10  68 N13       30.35S WCI   7
MACKINAC ISLAN SUNNY     21  10  63 W10G17    30.36S WCI   9
NEWBERRY       SUNNY     21   3  46 W7        30.35S WCI  12
S. S. MARIE    SUNNY     18   6  59 NW12      30.37R WCI   5
MUNISING         N/A     20   9  62 NE10      30.35F WCI   9
$$
MIZ004>006-011>014-085-022300-
CENTRAL UPPER MICHIGAN

CITY           SKY/WX    TMP DP  RH WIND       PRES   REMARKS
MANISTIQUE     SUNNY     25   8  49 S9        30.35F WCI  15
ESCANABA       SUNNY     25  12  58 S13G21    30.36F WCI  13
MENOMINEE      SUNNY     27   9  46 S13       30.35F WCI  16
SAWYER-GWINN   SUNNY     27   5  39 NE7       30.28F WCI  19
$$
MIZ001>003-009>011-084-022300-
WESTERN UPPER MICHIGAN

CITY           SKY/WX    TMP DP  RH WIND       PRES   REMARKS
IRON MOUNTAIN  SUNNY     29   3  33 S7        30.27F WCI  22
HOUGHTON       SUNNY     21   8  57 W9        30.26F WCI  11
COPPER HARBOR    N/A     22  12  65 N9        30.29F WCI  12
IRONWOOD       SUNNY     27   1  33 SW6       30.20F WCI  20
$$

ABBREVIATIONS USED IN REMARKS
   TC - TEMPERATURE IN CELSIUS
  WCI - WIND CHILL INDEX
   HX - HEAT INDEX
  VSB - VISIBILITY




USA.gov is the U.S. government's official web portal to all federal, state and local government web resources and services.